カタログに戻る

STARLINK-37253

運用中通信SSO
NORAD 68606·PAYLOAD·🇺🇸 United States

打ち上げ Apr 5, 2026 から Vandenberg Space Force Base

Loading…

次のパス (今後24時間)

TLE

最新Source: CelesTrak SupGP

元期: Sep 14, 2026, 21:14 UTC

1 68606C 26073E   26257.88520833  .00076538  00000+0  23765-2 0  2573
2 68606  97.2852  96.0266 0001792  96.4487 246.4035 15.33391282    19

AllMySatでSTARLINK-37253をリアルタイム追跡

Download on the App Store